Regional Weather Roundup
Issued by NWS

Home | Current Version | Previous Version | Graphics & Text | Print | Product List | Glossary On
Versions: 1 2 3 4 5 6 7 8 9 10 11 12 13 14 15 16 17 18 19 20 21 22 23 24 25 26 27 28 29 30 31 32 33 34 35 36 37 38 39 40 41 42 43 44 45 46 47 48 49 50
000
ASUS43 KFSD 161710
RWRSD

WEATHER ROUNDUP FOR SOUTH DAKOTA
NATIONAL WEATHER SERVICE SIOUX FALLS SD
1100 AM CST TUE JAN 16 2018

NOTE: "FAIR" INDICATES FEW OR NO CLOUDS BELOW 12,000 FEET WITH NO
SIGNIFICANT WEATHER AND/OR OBSTRUCTIONS TO VISIBILITY.


SDZ001>005-009-010-012>017-161800-
NORTHWEST AND NORTH CENTRAL SOUTH DAKOTA

CITY           SKY/WX    TMP DP  RH WIND       PRES   REMARKS
BUFFALO          N/A     -2 -10  69 SE5       30.34F WCI -12
FAITH            N/A     -6 -11  79 S18       30.52F WCI -29
MOBRIDGE       SUNNY     -4 -13  65 S7        30.62F WCI -18
$$

SDZ012>016-024>037-041>051-057-063-072>074-161800-
SOUTHWEST AND SOUTH CENTRAL SOUTH DAKOTA

CITY           SKY/WX    TMP DP  RH WIND       PRES   REMARKS
RAPID CTY ARPT SUNNY     -2  -7  79 SE10      30.46F WCI -19
PIERRE         SUNNY     -1 -11  62 S7        30.69F WCI -14
CUSTER         SUNNY     23 -20  14 SW7       30.32S WCI  15
ELLSWORTH AFB  SUNNY      7  -8  49 S8        30.44F WCI  -5
PHILIP         SUNNY      4  -2  76 SW6       30.62F WCI  -7
PINE RIDGE     SUNNY      5  -1  76 CALM      30.53F
SPEARFISH        N/A     12   0  57 CALM      30.37S
WINNER         FAIR       2 -10  57 SW6       30.68F WCI  -9
$$

SDZ004>011-016>023-039-040-161800-
NORTHEAST SOUTH DAKOTA

CITY           SKY/WX    TMP DP  RH WIND       PRES   REMARKS
ABERDEEN       SUNNY     -2 -12  62 S8        30.73F WCI -17
WATERTOWN      CLOUDY    -5 -11  75 NW6       30.67R WCI -18
BROOKINGS      CLOUDY    -4 -10  75 MISG        N/A
SISSETON         N/A      0  -9  65 NW7       30.72S WCI -13
$$

SDZ017-020-022-023-036>040-048>070-161800-
SOUTHEAST SOUTH DAKOTA

CITY           SKY/WX    TMP DP  RH WIND       PRES   REMARKS
SIOUX FALLS    PTSUNNY   -3  -9  75 NW8       30.73S WCI -18
HURON          SUNNY     -3 -12  65 W5        30.77S WCI -13
CHAMBERLAIN    SUNNY      0  -9  65 SW7       30.73F WCI -13
MITCHELL       SUNNY     -4 -10  75 W7        30.78F WCI -18
YANKTON        SUNNY     -1  -8  72 NW15      30.79R WCI -21
$$

ABBREVIATIONS USED IN REMARKS
   TC - TEMPERATURE IN CELSIUS
  WCI - WIND CHILL INDEX
   HX - HEAT INDEX
  VSB - VISIBILITY





USA.gov is the U.S. government's official web portal to all federal, state and local government web resources and services.